CFG3HU EDDF-LSZH

Flight info

Callsign CFG3HU
Flight time 0h 43m
Altitude 23000
Route ANEKI3D ANEKI Y163 NEKLO Y171 INKAM T725 LAMGO T721 RILAX
Aircraft A320/M-SDE3FGHIRWY/LB1

Departure

Time 2026-04-17 10:25
Airport Frankfurt Main Airport (EDDF)

Arrival

Time 2026-04-17 11:08
Airport Zürich Airport (LSZH)
Time Latitude Longitude Altitude Speed Heading
2026-04-17 09:46 50.04940 8.57785 353 ft 0 kts 21°
2026-04-17 10:17 50.04931 8.57780 355 ft 4 kts 22°
2026-04-17 10:17 50.04907 8.57762 356 ft 4 kts 31°
2026-04-17 10:17 50.04886 8.57738 356 ft 4 kts 58°
2026-04-17 10:17 50.04882 8.57710 356 ft 1 kts 112°
2026-04-17 10:20 50.04880 8.57716 353 ft 3 kts 112°
2026-04-17 10:20 50.04873 8.57742 358 ft 5 kts 111°
2026-04-17 10:20 50.04852 8.57825 349 ft 11 kts 112°
2026-04-17 10:21 50.04791 8.57915 348 ft 14 kts 158°
2026-04-17 10:21 50.04685 8.57975 353 ft 18 kts 160°
2026-04-17 10:21 50.04559 8.58045 347 ft 19 kts 160°
2026-04-17 10:21 50.04477 8.58095 345 ft 0 kts 158°
2026-04-17 10:22 50.04475 8.58096 346 ft 2 kts 158°
2026-04-17 10:22 50.04446 8.58113 352 ft 7 kts 161°
2026-04-17 10:23 50.04396 8.58131 346 ft 7 kts 176°
2026-04-17 10:23 50.04369 8.58094 354 ft 6 kts 259°
2026-04-17 10:23 50.04364 8.58076 347 ft 0 kts 248°
2026-04-17 10:24 50.04332 8.57949 346 ft 40 kts 250°
2026-04-17 10:24 50.04151 8.57186 354 ft 109 kts 250°
2026-04-17 10:24 50.03825 8.55815 351 ft 160 kts 250°
2026-04-17 10:25 50.03434 8.54131 837 ft 166 kts 250°
2026-04-17 10:25 50.03029 8.52430 1479 ft 170 kts 249°
2026-04-17 10:25 50.02512 8.50777 2160 ft 170 kts 232°
2026-04-17 10:25 50.01629 8.49590 2770 ft 171 kts 208°
2026-04-17 10:26 50.00457 8.48951 3113 ft 189 kts 195°
2026-04-17 10:26 49.99087 8.48834 3400 ft 210 kts 166°
2026-04-17 10:26 49.97780 8.49935 3954 ft 220 kts 136°
2026-04-17 10:26 49.96781 8.51757 4715 ft 222 kts 136°
2026-04-17 10:27 49.95446 8.52955 5350 ft 230 kts 166°
2026-04-17 10:27 49.93801 8.53132 5859 ft 244 kts 180°
2026-04-17 10:27 49.92034 8.53169 6372 ft 263 kts 179°
2026-04-17 10:27 49.90182 8.53275 7186 ft 269 kts 178°
2026-04-17 10:28 49.88297 8.53403 8035 ft 274 kts 178°
2026-04-17 10:28 49.86370 8.53544 8859 ft 279 kts 178°
2026-04-17 10:28 49.84412 8.53689 9685 ft 285 kts 178°
2026-04-17 10:28 49.82405 8.53838 10428 ft 293 kts 178°
2026-04-17 10:29 49.80293 8.53991 10721 ft 316 kts 178°
2026-04-17 10:29 49.78010 8.54111 10965 ft 339 kts 183°
2026-04-17 10:29 49.75611 8.53815 11481 ft 350 kts 186°
2026-04-17 10:29 49.73163 8.53484 12186 ft 356 kts 186°
2026-04-17 10:30 49.70679 8.53151 12906 ft 360 kts 186°
2026-04-17 10:30 49.68196 8.52820 13613 ft 365 kts 186°
2026-04-17 10:30 49.65649 8.52482 14287 ft 370 kts 186°
2026-04-17 10:30 49.63075 8.52143 14914 ft 373 kts 186°
2026-04-17 10:31 49.60470 8.51803 15548 ft 377 kts 186°
2026-04-17 10:31 49.57846 8.51459 16179 ft 381 kts 186°
2026-04-17 10:31 49.55192 8.51116 16808 ft 385 kts 186°
2026-04-17 10:31 49.52509 8.50770 17429 ft 388 kts 186°
2026-04-17 10:32 49.49805 8.50412 18049 ft 392 kts 186°
2026-04-17 10:32 49.47075 8.50045 18646 ft 396 kts 187°
2026-04-17 10:32 49.44314 8.49677 19188 ft 399 kts 187°
2026-04-17 10:32 49.41535 8.49315 19737 ft 403 kts 187°
2026-04-17 10:33 49.38734 8.48954 20295 ft 406 kts 187°
2026-04-17 10:33 49.35913 8.48587 20846 ft 409 kts 187°
2026-04-17 10:33 49.33065 8.48304 21382 ft 413 kts 182°
2026-04-17 10:33 49.30187 8.48653 21896 ft 418 kts 172°
2026-04-17 10:34 49.27337 8.49731 22405 ft 424 kts 162°
2026-04-17 10:34 49.24622 8.51540 22892 ft 429 kts 152°
2026-04-17 10:34 49.22064 8.53922 23177 ft 432 kts 149°
2026-04-17 10:34 49.19505 8.56386 23217 ft 438 kts 148°
2026-04-17 10:35 49.16926 8.58886 23218 ft 440 kts 148°
2026-04-17 10:35 49.14273 8.61219 23219 ft 440 kts 155°
2026-04-17 10:35 49.11472 8.63090 23218 ft 439 kts 158°
2026-04-17 10:35 49.08663 8.64920 23215 ft 440 kts 158°
2026-04-17 10:36 49.05849 8.66749 23215 ft 440 kts 158°
2026-04-17 10:36 49.03033 8.68577 23215 ft 440 kts 158°
2026-04-17 10:36 49.00252 8.70374 23215 ft 439 kts 158°
2026-04-17 10:36 48.97433 8.72192 23204 ft 439 kts 158°
2026-04-17 10:37 48.94619 8.74009 23204 ft 439 kts 158°
2026-04-17 10:37 48.91771 8.75685 23204 ft 438 kts 165°
2026-04-17 10:37 48.88801 8.76677 23204 ft 436 kts 174°
2026-04-17 10:37 48.85789 8.76898 23212 ft 433 kts 184°
2026-04-17 10:38 48.82808 8.76374 23212 ft 431 kts 192°
2026-04-17 10:38 48.79854 8.75569 23208 ft 431 kts 192°
2026-04-17 10:38 48.76896 8.74768 23206 ft 432 kts 192°
2026-04-17 10:38 48.73935 8.73972 23196 ft 432 kts 192°
2026-04-17 10:39 48.70976 8.73185 23196 ft 432 kts 192°
2026-04-17 10:39 48.68053 8.72409 23192 ft 432 kts 192°
2026-04-17 10:39 48.65096 8.71625 23196 ft 432 kts 192°
2026-04-17 10:39 48.62135 8.70839 23197 ft 432 kts 192°
2026-04-17 10:40 48.59175 8.70049 23197 ft 432 kts 192°
2026-04-17 10:40 48.56216 8.69259 23201 ft 432 kts 192°
2026-04-17 10:40 48.53252 8.68472 23201 ft 432 kts 192°
2026-04-17 10:40 48.50289 8.67688 23202 ft 432 kts 192°
2026-04-17 10:41 48.47330 8.66904 23202 ft 432 kts 192°
2026-04-17 10:41 48.44370 8.66115 23203 ft 432 kts 192°
2026-04-17 10:41 48.41408 8.65327 23204 ft 432 kts 192°
2026-04-17 10:41 48.38444 8.64545 23203 ft 433 kts 192°
2026-04-17 10:42 48.35480 8.63736 23202 ft 432 kts 193°
2026-04-17 10:42 48.32535 8.62874 23100 ft 429 kts 193°
2026-04-17 10:42 48.29629 8.61987 22549 ft 423 kts 194°
2026-04-17 10:42 48.26759 8.61093 21978 ft 419 kts 194°
2026-04-17 10:43 48.23920 8.60210 21446 ft 415 kts 194°
2026-04-17 10:43 48.21103 8.59341 20919 ft 411 kts 194°
2026-04-17 10:43 48.18321 8.58491 20419 ft 407 kts 193°
2026-04-17 10:43 48.15554 8.57662 19943 ft 403 kts 193°
2026-04-17 10:44 48.12811 8.56853 19441 ft 400 kts 193°
2026-04-17 10:44 48.10095 8.56051 18949 ft 397 kts 193°
2026-04-17 10:44 48.07393 8.55252 18433 ft 394 kts 193°
2026-04-17 10:44 48.04710 8.54460 17890 ft 391 kts 193°
2026-04-17 10:45 48.02047 8.53670 17370 ft 388 kts 193°
2026-04-17 10:45 47.99413 8.52899 16853 ft 385 kts 191°
2026-04-17 10:45 47.96738 8.52683 16319 ft 385 kts 177°
2026-04-17 10:45 47.94106 8.53369 15785 ft 385 kts 164°
2026-04-17 10:46 47.91644 8.54911 15233 ft 384 kts 151°
2026-04-17 10:46 47.89497 8.57173 14704 ft 383 kts 141°
2026-04-17 10:46 47.87441 8.59687 14151 ft 382 kts 141°
2026-04-17 10:46 47.85388 8.62190 13552 ft 380 kts 141°
2026-04-17 10:47 47.83347 8.64676 12984 ft 378 kts 141°
2026-04-17 10:47 47.81320 8.67141 12416 ft 375 kts 141°
2026-04-17 10:47 47.79307 8.69581 11853 ft 372 kts 141°
2026-04-17 10:47 47.77305 8.72005 11273 ft 370 kts 141°
2026-04-17 10:48 47.75318 8.74410 10842 ft 364 kts 141°
2026-04-17 10:48 47.74018 8.75984 10749 ft 349 kts 142°
2026-04-17 10:48 47.71651 8.78843 10568 ft 315 kts 142°
2026-04-17 10:48 47.70522 8.80206 10314 ft 306 kts 142°
2026-04-17 10:49 47.68883 8.82181 10047 ft 300 kts 142°
2026-04-17 10:49 47.67287 8.84098 9914 ft 297 kts 142°
2026-04-17 10:49 47.65682 8.86026 9778 ft 296 kts 142°
2026-04-17 10:49 47.64083 8.87951 9598 ft 296 kts 142°
2026-04-17 10:50 47.62542 8.89946 9232 ft 294 kts 133°
2026-04-17 10:50 47.61346 8.92382 8848 ft 292 kts 118°
2026-04-17 10:50 47.60414 8.95051 8472 ft 291 kts 117°
2026-04-17 10:50 47.59493 8.97708 8086 ft 289 kts 117°
2026-04-17 10:51 47.58569 9.00365 7587 ft 291 kts 117°
2026-04-17 10:51 47.57659 9.02974 7178 ft 282 kts 117°
2026-04-17 10:51 47.56569 9.05305 6986 ft 275 kts 139°
2026-04-17 10:51 47.54916 9.06691 6990 ft 276 kts 166°
2026-04-17 10:52 47.53016 9.06789 6991 ft 276 kts 193°
2026-04-17 10:52 47.51309 9.05558 6992 ft 276 kts 221°
2026-04-17 10:52 47.50192 9.03275 7000 ft 275 kts 249°
2026-04-17 10:52 47.49923 9.00506 7004 ft 275 kts 277°
2026-04-17 10:53 47.50547 8.97869 6994 ft 275 kts 304°
2026-04-17 10:53 47.51794 8.95727 7002 ft 275 kts 313°
2026-04-17 10:53 47.53090 8.93628 7007 ft 276 kts 312°
2026-04-17 10:53 47.54377 8.91525 7000 ft 276 kts 312°
2026-04-17 10:54 47.55659 8.89423 6996 ft 276 kts 312°
2026-04-17 10:54 47.56949 8.87308 7001 ft 276 kts 312°
2026-04-17 10:54 47.58205 8.85210 7000 ft 276 kts 308°
2026-04-17 10:54 47.59077 8.82707 6996 ft 275 kts 285°
2026-04-17 10:55 47.59111 8.79913 6937 ft 275 kts 252°
2026-04-17 10:55 47.58205 8.77426 6852 ft 277 kts 232°
2026-04-17 10:55 47.56920 8.75241 6764 ft 278 kts 226°
2026-04-17 10:55 47.55599 8.73209 6676 ft 278 kts 226°
2026-04-17 10:56 47.54287 8.71113 6576 ft 277 kts 228°
2026-04-17 10:56 47.53032 8.68955 6485 ft 277 kts 230°
2026-04-17 10:56 47.51824 8.66735 6391 ft 277 kts 231°
2026-04-17 10:56 47.50645 8.64468 6261 ft 278 kts 232°
2026-04-17 10:57 47.49487 8.62175 6171 ft 278 kts 233°
2026-04-17 10:57 47.48454 8.59817 6071 ft 269 kts 247°
2026-04-17 10:57 47.48091 8.57200 5987 ft 254 kts 271°
2026-04-17 10:57 47.48432 8.54726 5900 ft 240 kts 294°
2026-04-17 10:58 47.49321 8.52719 5821 ft 231 kts 316°
2026-04-17 10:58 47.50578 8.51366 5746 ft 219 kts 336°
2026-04-17 10:58 47.51945 8.50474 5675 ft 211 kts 338°
2026-04-17 10:58 47.53274 8.49601 5596 ft 208 kts 338°
2026-04-17 10:59 47.54594 8.48728 5531 ft 207 kts 338°
2026-04-17 10:59 47.55903 8.47864 5455 ft 207 kts 338°
2026-04-17 10:59 47.57200 8.47008 5427 ft 200 kts 338°
2026-04-17 10:59 47.58469 8.46170 5333 ft 198 kts 338°
2026-04-17 11:00 47.59718 8.45343 5245 ft 196 kts 338°
2026-04-17 11:00 47.60964 8.44518 5185 ft 196 kts 339°
2026-04-17 11:00 47.62208 8.43696 5127 ft 196 kts 338°
2026-04-17 11:00 47.63450 8.42875 5065 ft 196 kts 339°
2026-04-17 11:01 47.64694 8.42050 4995 ft 196 kts 338°
2026-04-17 11:01 47.65787 8.40835 4804 ft 200 kts 308°
2026-04-17 11:01 47.66318 8.38982 4572 ft 193 kts 278°
2026-04-17 11:01 47.66227 8.37135 4516 ft 174 kts 252°
2026-04-17 11:02 47.65685 8.35646 4495 ft 159 kts 227°
2026-04-17 11:02 47.64851 8.34640 4463 ft 152 kts 204°
2026-04-17 11:02 47.63866 8.34172 4426 ft 148 kts 183°
2026-04-17 11:02 47.62857 8.34251 4385 ft 144 kts 162°
2026-04-17 11:03 47.61949 8.34833 4364 ft 141 kts 143°
2026-04-17 11:03 47.61214 8.35771 4334 ft 139 kts 134°
2026-04-17 11:03 47.60503 8.36748 4297 ft 140 kts 135°
2026-04-17 11:03 47.59789 8.37730 4236 ft 140 kts 135°
2026-04-17 11:04 47.59076 8.38709 4182 ft 140 kts 135°
2026-04-17 11:04 47.58355 8.39700 4083 ft 141 kts 134°
2026-04-17 11:04 47.57633 8.40692 3937 ft 142 kts 134°
2026-04-17 11:04 47.56913 8.41680 3760 ft 141 kts 134°
2026-04-17 11:05 47.56197 8.42664 3584 ft 141 kts 134°
2026-04-17 11:05 47.55478 8.43650 3398 ft 140 kts 134°
2026-04-17 11:05 47.54765 8.44629 3196 ft 140 kts 134°
2026-04-17 11:05 47.54049 8.45610 3009 ft 140 kts 133°
2026-04-17 11:06 47.53339 8.46582 2819 ft 139 kts 134°
2026-04-17 11:06 47.52630 8.47554 2665 ft 139 kts 134°
2026-04-17 11:06 47.51920 8.48534 2452 ft 140 kts 133°
2026-04-17 11:06 47.51217 8.49539 2226 ft 140 kts 134°
2026-04-17 11:07 47.50494 8.50520 2148 ft 142 kts 136°
2026-04-17 11:07 47.49749 8.51495 1880 ft 143 kts 136°
2026-04-17 11:07 47.49035 8.52473 1720 ft 142 kts 136°
2026-04-17 11:07 47.48301 8.53483 1478 ft 141 kts 135°
2026-04-17 11:08 47.47628 8.54444 1395 ft 122 kts 134°
2026-04-17 11:08 47.47120 8.55103 1393 ft 72 kts 139°
2026-04-17 11:08 47.46858 8.55452 1401 ft 39 kts 136°
2026-04-17 11:08 47.46667 8.55718 1399 ft 37 kts 138°
2026-04-17 11:09 47.46494 8.55909 1400 ft 29 kts 155°
2026-04-17 11:09 47.46353 8.55969 1404 ft 12 kts 168°
2026-04-17 11:09 47.46330 8.55975 1399 ft 0 kts 168°
2026-04-17 11:11 47.46300 8.55984 1402 ft 9 kts 168°
2026-04-17 11:11 47.46207 8.56008 1399 ft 18 kts 178°
2026-04-17 11:11 47.46083 8.55992 1401 ft 17 kts 186°
2026-04-17 11:11 47.45969 8.55971 1402 ft 16 kts 191°
2026-04-17 11:12 47.45867 8.55918 1406 ft 16 kts 202°
2026-04-17 11:12 47.45770 8.55875 1404 ft 13 kts 187°
2026-04-17 11:12 47.45690 8.55865 1402 ft 10 kts 185°
2026-04-17 11:12 47.45615 8.55855 1397 ft 11 kts 186°
2026-04-17 11:13 47.45543 8.55843 1397 ft 10 kts 190°
2026-04-17 11:13 47.45507 8.55780 1399 ft 8 kts 261°
2026-04-17 11:13 47.45509 8.55705 1400 ft 7 kts 277°
2026-04-17 11:13 47.45508 8.55652 1397 ft 4 kts 232°
2026-04-17 11:14 47.45489 8.55645 1400 ft 2 kts 189°
2026-04-17 11:14 47.45459 8.55639 1397 ft 5 kts 187°
2026-04-17 11:14 47.45435 8.55635 1397 ft 0 kts 186°
2026-04-17 11:14 47.45433 8.55634 1397 ft 0 kts 186°